Probability
0 0 29 32 29 32 32 29 35 32 32 35 35 42 35 32 29 32 32 29 26 32 29 23 23 19 16 10 13 16 13 10 6 6 6 3 3 0 0 3 0 0 0
0 0 26 35 32 32 32 29 29 32 32 32 32 29 26 26 29 29 29 26 26 29 29 26 23 13 13 13 13 16 13 10 6 6 3 3 3 0 0 0 0 0 0
0 3 23 35 32 32 29 29 29 29 29 29 26 23 23 23 26 26 23 26 26 29 23 29 26 19 16 16 16 13 13 10 6 6 0 0 0 3 0 0 0 0 0
0 10 16 35 32 29 29 26 26 26 29 29 26 23 23 23 23 26 23 23 23 19 19 13 23 19 19 19 13 13 13 10 3 0 0 0 0 0 0 0 0 0 0
3 6 10 26 29 29 32 29 26 26 29 26 23 23 23 23 23 23 23 23 19 16 16 13 13 16 19 16 13 10 10 6 3 0 0 0 0 0 0 0 0 0 0
3 6 10 23 29 29 29 26 19 26 23 23 23 23 23 23 23 19 19 23 16 16 16 6 6 3 6 6 6 10 6 6 0 0 0 0 0 0 0 0 3 3 0
0 3 10 19 19 19 23 16 16 19 19 13 16 19 19 16 19 16 16 16 13 13 6 3 6 3 3 3 3 3 3 6 0 0 0 0 0 0 0 0 0 3 3
0 0 0 13 16 16 19 23 16 13 13 13 13 13 10 10 13 13 13 13 13 13 10 6 6 6 6 6 3 0 0 0 0 0 0 0 0 0 0 3 0 3 3
0 0 0 3 3 3 6 13 13 13 13 13 10 10 13 10 10 10 13 13 10 10 6 10 10 6 10 10 3 3 0 0 0 0 0 0 0 0 6 6 6 3 0
0 0 0 0 0 3 3 3 0 3 6 6 6 6 6 10 10 10 10 10 13 10 6 6 3 6 10 10 3 0 0 0 0 0 0 0 0 3 3 10 6 10 6
0 0 0 0 0 0 0 0 0 0 0 0 6 6 6 6 6 6 6 6 6 6 6 3 3 3 3 3 0 0 0 0 0 0 0 0 0 0 3 6 10 6 6
0 0 0 0 0 0 0 0 0 0 0 0 0 0 0 0 6 6 3 6 6 6 3 3 3 3 3 0 0 0 0 0 0 0 0 0 0 0 0 3 10 6 6
0 0 0 0 0 0 0 0 0 0 0 0 0 0 0 0 0 0 0 0 0 0 0 3 3 0 0 0 0 0 0 0 0 0 0 0 0 0 0 0 6 6 6
0 0 0 0 0 0 0 0 0 0 0 0 0 0 0 0 0 0 0 0 0 0 0 0 0 0 0 0 0 0 0 0 0 0 0 0 0 0 3 0 0 3 3
0 0 0 0 0 0 0 0 0 0 0 0 0 0 0 0 0 0 0 0 0 0 0 0 0 0 0 0 0 0 0 0 0 0 0 0 0 0 3 3 0 3 0
0 0 0 0 0 0 0 0 0 0 0 0 0 0 0 0 0 0 0 0 0 0 0 0 0 0 0 0 0 0 0 0 0 0 0 0 0 0 0 3 0 3 3
0 0 0 0 0 0 0 0 0 0 0 0 0 0 0 0 0 0 0 0 0 0 0 0 0 0 0 0 0 0 0 0 0 0 0 0 0 0 0 0 0 0 0
0 0 0 0 0 0 0 0 0 0 0 0 0 0 0 0 0 0 0 0 0 0 0 0 0 0 0 0 0 0 0 0 0 0 0 0 0 0 0 0 0 0 3
0 0 0 0 0 0 0 0 0 0 0 0 0 0 0 0 0 0 0 0 0 0 0 0 0 0 0 0 0 0 0 0 0 0 0 0 0 0 0 0 0 0 0
0 0 0 0 0 0 0 0 0 0 0 0 0 0 0 0 0 0 0 0 0 0 0 0 0 0 0 0 0 0 0 0 0 0 0 0 0 0 0 0 0 0 0
0 0 0 0 0 0 0 0 0 0 0 0 0 0 0 0 0 0 0 0 0 0 0 0 0 0 0 0 0 0 0 0 0 0 0 0 0 0 0 0 0 0 0
0 0 0 0 0 0 0 0 0 0 0 0 0 0 0 0 0 0 0 0 0 0 0 0 0 0 0 0 0 0 0 0 0 0 0 0 0 0 0 0 0 0 0
0 0 0 0 0 0 0 0 0 0 0 0 0 0 0 0 0 0 0 0 0 0 0 0 0 0 0 0 0 0 0 0 0 0 0 0 0 0 0 0 0 0 0
0 0 0 0 0 0 0 0 0 0 0 0 0 0 0 0 0 0 0 0 0 0 0 0 0 0 0 0 0 0 0 0 0 0 0 0 0 0 0 0 0 0 0
0 0 0 0 0 0 0 0 0 0 0 0 0 0 0 0 0 0 0 0 0 0 0 0 0 0 0 0 0 0 0 0 0 0 0 0 0 0 0 0 0 0 0
0 0 0 0 0 0 0 0 0 0 0 0 0 0 0 0 0 0 0 0 0 0 0 0 0 0 0 0 0 0 0 0 0 0 0 0 0 0 0 0 0 0 0
Height
5834 5836 5836 5837 5838 5839 5839 5840 5841 5842 5843 5843 5844 5845 5846 5847 5848 5849 5850 5850 5851 5852 5852 5853 5853 5853 5854 5854 5855 5855 5855 5855 5856 5856 5856 5856 5856 5856 5856 5856 5856 5856 5855
5831 5833 5834 5834 5835 5836 5837 5838 5838 5839 5840 5841 5842 5843 5844 5845 5846 5847 5848 5848 5849 5850 5850 5851 5851 5852 5852 5852 5853 5853 5853 5853 5854 5854 5854 5854 5854 5854 5854 5854 5854 5854 5853
5828 5829 5830 5831 5832 5833 5834 5835 5836 5837 5837 5837 5839 5840 5841 5842 5843 5844 5845 5846 5846 5847 5848 5849 5849 5849 5850 5850 5850 5851 5851 5851 5851 5851 5852 5852 5852 5852 5851 5851 5851 5852 5851
5824 5826 5827 5828 5829 5829 5830 5831 5832 5833 5834 5834 5836 5837 5838 5840 5841 5842 5843 5844 5844 5845 5845 5846 5846 5847 5847 5847 5848 5848 5848 5849 5849 5849 5849 5849 5849 5849 5849 5849 5849 5849 5848
5821 5822 5823 5824 5825 5826 5827 5828 5829 5830 5831 5832 5833 5834 5835 5836 5837 5838 5839 5840 5841 5842 5842 5843 5843 5844 5844 5844 5845 5845 5845 5846 5846 5846 5846 5846 5846 5846 5846 5846 5846 5845 5845
5816 5817 5819 5820 5821 5822 5823 5823 5825 5826 5827 5828 5829 5830 5831 5832 5833 5835 5836 5837 5838 5838 5839 5839 5840 5840 5841 5841 5841 5842 5842 5842 5843 5843 5843 5843 5843 5843 5843 5842 5842 5842 5842
5811 5813 5814 5815 5816 5817 5818 5819 5820 5821 5823 5824 5825 5826 5827 5828 5829 5830 5831 5833 5834 5834 5835 5835 5836 5836 5836 5837 5837 5838 5838 5839 5839 5839 5839 5839 5839 5839 5839 5839 5838 5838 5838
5806 5808 5809 5810 5811 5812 5814 5815 5816 5817 5818 5819 5820 5821 5822 5824 5825 5826 5827 5828 5829 5830 5831 5831 5831 5832 5832 5832 5833 5833 5834 5834 5835 5835 5835 5835 5835 5835 5835 5835 5834 5834 5834
5801 5802 5803 5804 5806 5807 5808 5809 5811 5812 5813 5814 5815 5816 5817 5818 5820 5821 5822 5823 5824 5825 5826 5826 5827 5827 5828 5828 5828 5829 5829 5830 5830 5830 5830 5830 5830 5830 5830 5830 5830 5829 5829
5795 5796 5798 5799 5800 5801 5803 5804 5805 5806 5807 5808 5809 5810 5811 5813 5814 5815 5817 5818 5819 5820 5820 5821 5821 5822 5822 5823 5823 5823 5824 5824 5825 5825 5825 5825 5825 5825 5825 5825 5824 5824 5823
5789 5790 5792 5793 5794 5795 5797 5798 5799 5800 5801 5802 5803 5804 5806 5807 5808 5809 5811 5812 5813 5814 5814 5815 5816 5816 5817 5817 5817 5818 5818 5819 5819 5819 5820 5819 5819 5819 5819 5819 5818 5818 5817
5783 5784 5786 5787 5788 5789 5791 5792 5793 5794 5795 5796 5797 5798 5799 5801 5802 5803 5804 5805 5806 5807 5808 5809 5810 5810 5811 5811 5811 5811 5812 5812 5813 5813 5813 5813 5813 5813 5812 5812 5812 5811 5811
5777 5778 5779 5781 5782 5783 5784 5786 5787 5788 5789 5790 5791 5792 5793 5794 5795 5797 5798 5799 5800 5801 5801 5802 5803 5803 5804 5804 5805 5805 5805 5805 5806 5806 5806 5806 5806 5805 5805 5805 5804 5804 5803
5770 5772 5773 5774 5775 5777 5778 5779 5781 5782 5783 5784 5785 5786 5787 5788 5789 5790 5791 5792 5793 5793 5794 5795 5795 5796 5797 5797 5797 5798 5798 5798 5798 5798 5798 5798 5798 5798 5797 5797 5797 5796 5796
5763 5765 5766 5767 5768 5770 5771 5772 5774 5775 5776 5777 5778 5779 5780 5781 5782 5783 5783 5784 5785 5786 5786 5787 5788 5788 5789 5789 5790 5790 5790 5790 5790 5790 5790 5790 5790 5790 5789 5789 5789 5788 5787
5756 5758 5759 5760 5761 5763 5764 5765 5767 5768 5769 5770 5771 5772 5773 5774 5774 5775 5776 5776 5777 5777 5778 5779 5779 5780 5780 5781 5781 5782 5782 5782 5782 5782 5782 5781 5781 5781 5780 5780 5779 5779 5778
5749 5750 5752 5753 5754 5755 5757 5758 5759 5760 5762 5762 5763 5764 5765 5766 5767 5767 5768 5768 5769 5769 5770 5770 5771 5771 5771 5772 5772 5772 5772 5773 5773 5772 5772 5772 5772 5771 5771 5770 5770 5769 5769
5741 5743 5744 5745 5747 5748 5749 5750 5751 5753 5754 5755 5756 5756 5757 5758 5759 5759 5759 5760 5760 5760 5761 5761 5762 5762 5762 5763 5763 5763 5763 5763 5763 5763 5762 5762 5762 5761 5761 5760 5760 5759 5759
5733 5734 5736 5737 5739 5740 5741 5742 5743 5745 5746 5746 5747 5748 5749 5749 5750 5750 5751 5751 5751 5751 5752 5752 5752 5753 5753 5753 5753 5753 5753 5753 5753 5752 5752 5751 5751 5750 5750 5750 5749 5749 5748
5724 5726 5727 5729 5730 5731 5732 5733 5735 5736 5737 5738 5738 5739 5740 5740 5741 5741 5741 5741 5742 5742 5742 5742 5742 5742 5742 5743 5743 5743 5742 5742 5742 5741 5741 5740 5740 5739 5739 5739 5738 5738 5737
5716 5717 5718 5720 5720 5722 5723 5724 5726 5727 5728 5729 5729 5730 5730 5731 5731 5731 5732 5732 5732 5732 5732 5732 5731 5731 5731 5731 5732 5732 5731 5731 5730 5730 5729 5729 5728 5728 5727 5727 5726 5726 5725
5707 5708 5709 5710 5711 5712 5713 5715 5716 5717 5718 5719 5720 5720 5721 5721 5721 5721 5721 5721 5721 5721 5721 5720 5720 5720 5720 5720 5720 5720 5720 5720 5719 5718 5717 5717 5716 5716 5715 5715 5714 5713 5713
5697 5699 5700 5701 5702 5703 5704 5705 5706 5707 5708 5709 5710 5710 5710 5711 5711 5710 5710 5710 5710 5709 5709 5709 5709 5709 5708 5708 5707 5707 5707 5708 5708 5708 5706 5705 5704 5703 5702 5702 5701 5700 5699
5688 5689 5690 5691 5692 5693 5694 5695 5696 5697 5698 5699 5699 5700 5700 5699 5699 5699 5699 5699 5698 5698 5697 5697 5697 5696 5696 5696 5695 5694 5694 5693 5694 5695 5695 5693 5692 5691 5690 5689 5688 5687 5686
5678 5679 5680 5681 5682 5683 5684 5685 5686 5687 5688 5688 5689 5689 5689 5689 5688 5688 5688 5687 5687 5686 5685 5685 5684 5684 5683 5682 5682 5681 5681 5680 5679 5679 5681 5681 5680 5678 5677 5676 5675 5674 5672
5668 5669 5670 5672 5673 5674 5675 5675 5676 5677 5677 5678 5678 5678 5678 5678 5677 5677 5676 5675 5675 5674 5673 5673 5672 5671 5670 5669 5668 5667 5667 5666 5665 5665 5666 5666 5666 5666 5663 5662 5661 5659 5658
Wind_Speed
17 17 16 16 16 15 14 14 13 13 13 12 12 11 11 11 10 10 9 9 9 9 9 9 9 9 9 9 9 10 10 9 9 9 9 9 8 8 9 9 10 9 9
19 18 18 17 17 17 16 15 15 15 14 14 14 14 13 13 12 12 12 11 11 11 11 11 11 11 11 11 11 11 11 11 11 11 11 11 10 11 11 11 11 12 11
20 20 19 19 19 18 17 16 16 16 15 15 16 15 15 14 14 14 13 13 13 13 13 13 13 12 12 13 13 13 13 13 13 13 13 13 12 13 13 13 13 13 13
21 21 21 20 20 20 19 18 18 18 17 17 17 17 17 16 16 15 15 15 15 15 15 15 15 14 14 14 14 14 14 15 15 15 15 15 15 15 15 15 16 16 15
23 22 22 22 22 22 21 20 20 19 19 19 18 18 19 18 18 17 17 17 17 17 17 17 17 16 16 16 16 16 16 16 16 16 16 16 17 17 17 17 17 17 17
24 23 23 24 24 24 24 23 22 21 21 21 21 20 20 20 20 19 19 19 19 19 19 19 19 19 19 19 19 19 18 18 18 18 18 18 18 18 18 19 19 18 19
25 24 25 25 25 25 25 25 24 24 23 23 23 23 23 22 22 21 21 21 21 21 21 21 21 21 21 21 21 21 20 20 20 20 19 19 19 20 20 20 20 20 21
25 26 26 26 26 26 26 26 26 26 26 25 25 25 25 24 24 24 23 23 23 23 23 23 23 23 23 23 23 23 22 22 22 22 21 21 21 22 22 22 23 23 23
27 27 27 27 28 28 28 28 28 28 28 27 27 27 27 27 27 26 26 26 25 25 25 25 25 24 24 24 24 24 24 23 23 24 23 23 23 24 24 24 25 25 25
27 28 28 28 29 29 29 29 29 29 28 28 28 28 29 29 29 29 28 28 27 27 27 27 27 26 27 26 26 25 25 26 26 26 26 26 26 26 26 26 27 27 27
28 29 29 29 30 30 30 30 30 30 29 29 29 29 29 30 30 30 30 30 29 29 29 29 29 29 29 29 29 28 28 28 28 28 28 28 28 28 28 28 29 29 29
29 29 29 29 30 30 31 31 31 31 30 30 31 31 30 30 31 32 32 32 32 32 32 31 31 31 31 31 32 31 30 30 31 31 30 30 30 30 30 30 31 31 31
30 31 30 31 31 31 31 31 31 31 31 31 31 31 32 31 32 33 34 34 34 33 33 33 33 33 33 33 33 33 33 33 33 33 33 33 33 33 33 33 33 33 33
31 32 32 31 31 32 32 32 32 32 32 32 32 32 33 33 33 34 34 35 35 35 35 35 35 35 34 34 35 35 36 36 36 35 35 35 35 35 36 36 36 36 36
32 32 32 32 32 32 33 34 34 34 33 34 34 34 34 34 34 35 35 36 36 37 37 37 37 37 37 37 37 37 37 38 38 38 37 37 37 37 38 38 38 38 38
34 34 34 34 34 34 34 34 35 35 35 35 36 36 36 36 36 36 37 37 37 38 39 39 39 39 39 39 39 39 39 39 40 40 40 40 40 40 40 40 40 40 40
35 36 36 36 36 35 35 35 36 36 37 37 37 37 38 37 38 38 38 39 39 39 39 40 41 41 40 40 41 41 41 41 41 42 42 42 42 42 42 42 42 42 41
36 37 38 38 38 38 37 37 37 37 37 38 38 38 39 39 39 40 40 40 41 41 41 41 41 42 42 42 43 43 43 43 44 44 44 44 44 45 45 44 44 43 43
36 37 38 39 39 39 38 38 38 39 39 39 39 39 40 40 41 41 41 42 43 43 43 44 44 44 44 44 45 45 45 45 46 45 45 45 45 46 46 46 45 45 45
37 37 38 39 39 39 39 39 40 40 40 40 41 41 41 42 43 42 42 43 43 43 44 45 46 46 47 47 47 47 48 48 48 48 48 48 47 47 47 47 47 47 47
37 37 38 39 39 40 40 40 40 41 41 42 42 43 43 43 44 44 44 44 45 45 45 46 47 48 49 49 49 49 49 49 49 50 50 50 49 49 48 48 49 49 49
38 37 37 38 40 40 41 41 41 42 42 43 43 43 44 45 45 45 46 46 46 47 47 48 48 49 50 50 50 50 50 50 51 51 51 50 50 50 50 50 50 50 50
40 40 40 40 40 41 41 42 42 43 43 44 44 45 45 46 47 47 47 48 48 48 49 49 49 49 50 50 51 51 51 51 51 51 51 51 51 51 51 51 51 51 51
41 41 41 41 41 40 41 42 44 44 44 44 45 45 46 46 47 48 48 48 48 49 49 50 50 50 51 51 52 52 52 52 52 51 50 51 52 52 52 52 51 51 51
40 41 41 42 42 42 42 42 43 44 45 45 46 45 45 46 47 48 48 48 48 49 49 50 51 51 51 52 52 53 53 53 53 53 52 52 52 52 53 53 53 53 52
40 41 41 42 42 42 43 43 43 44 45 45 45 46 46 47 48 48 49 49 49 49 50 50 51 51 51 52 52 53 54 54 54 54 54 53 52 53 53 53 54 54 54
Wind_Direction
248 249 251 253 255 255 255 257 258 259 261 260 259 258 254 257 260 262 265 267 268 270 275 277 277 274 272 272 274 276 276 278 277 279 281 281 283 285 284 285 286 290 288
248 249 250 253 256 257 256 256 257 257 260 260 259 259 256 255 256 258 260 263 267 269 273 274 275 275 273 271 271 273 276 277 277 279 279 279 280 281 282 284 284 286 285
248 249 250 253 255 257 257 257 257 256 258 258 259 259 258 256 256 256 259 262 265 267 270 271 272 273 274 273 270 271 275 277 277 278 278 278 278 279 281 283 283 282 285
249 250 251 252 254 256 257 258 258 258 257 256 258 259 258 257 257 258 259 261 263 266 268 270 270 271 272 273 271 271 274 275 276 277 278 278 279 279 281 282 282 281 282
249 251 252 251 253 254 256 257 258 259 259 258 258 259 258 257 256 258 260 261 263 265 267 269 269 269 271 273 273 272 274 275 275 277 278 279 279 279 280 281 281 281 281
251 250 252 252 253 253 255 257 258 259 259 259 259 259 259 259 259 259 261 262 263 265 267 268 269 269 269 272 273 273 273 275 275 275 276 278 279 280 280 280 280 281 280
252 250 251 252 253 254 255 257 258 259 259 259 259 259 259 260 259 259 261 262 264 265 267 268 269 269 271 272 272 272 272 274 274 274 275 277 278 279 280 280 280 281 281
252 251 251 253 253 254 255 257 259 259 260 260 259 259 259 259 260 260 261 262 264 265 266 269 269 270 269 269 269 270 271 273 273 274 275 276 277 279 280 280 280 281 281
252 251 251 253 254 254 255 256 258 260 260 260 260 259 259 259 259 260 260 262 264 265 266 269 270 270 268 269 270 270 270 271 272 273 274 276 277 278 279 280 281 282 281
253 253 253 254 254 255 255 256 258 259 259 260 260 259 259 259 260 260 260 262 263 265 266 268 269 269 269 269 270 270 270 271 271 272 274 275 276 278 279 279 280 281 281
253 253 254 254 255 255 257 257 258 259 259 260 260 260 259 258 260 260 261 262 263 265 266 268 269 269 269 269 269 269 270 271 272 272 273 275 276 277 278 279 280 281 281
253 253 254 256 256 257 257 257 258 258 258 259 260 260 260 259 259 260 261 262 263 265 266 268 269 269 269 270 270 269 269 270 272 273 274 275 275 276 277 278 279 280 281
254 254 255 256 256 257 257 257 258 258 258 258 259 259 260 260 260 260 261 263 264 264 265 266 267 268 268 268 269 270 270 271 272 273 274 274 275 277 277 278 278 280 281
255 255 254 255 255 256 256 257 257 257 258 258 259 259 260 261 261 262 262 263 264 264 265 266 267 268 268 269 269 270 271 270 271 272 273 274 275 276 277 277 278 279 280
255 255 255 256 256 256 256 257 257 257 258 259 260 260 261 262 262 263 263 264 264 264 265 265 266 267 268 269 270 271 271 271 271 271 272 274 274 276 277 277 277 278 278
254 255 255 255 256 256 257 258 258 258 259 260 261 261 262 262 263 264 265 265 265 265 265 265 266 267 268 269 270 270 270 270 271 272 273 274 274 275 276 276 277 277 277
254 255 255 255 256 257 257 258 258 258 259 261 261 262 262 263 264 265 265 267 267 267 266 266 267 267 268 269 270 271 271 271 271 272 273 273 274 275 275 275 275 276 276
255 255 255 256 257 258 257 257 258 258 260 261 262 263 264 264 265 266 266 267 267 267 267 267 267 268 268 269 269 270 270 271 272 273 274 274 274 274 274 275 275 275 275
256 257 257 257 257 258 257 257 258 259 260 261 263 264 266 266 266 267 268 267 267 267 267 268 268 269 269 269 270 270 270 270 271 273 274 274 274 274 274 274 274 275 275
257 258 258 257 258 258 258 258 258 259 260 262 263 265 267 268 268 269 270 269 269 268 268 268 269 269 270 271 271 271 271 271 271 272 273 274 274 274 274 274 274 274 274
259 259 259 258 259 258 259 259 259 259 261 262 264 265 267 268 269 270 270 270 270 270 270 270 270 271 271 271 271 271 271 271 272 273 274 275 275 275 274 274 274 275 275
260 260 261 260 259 258 259 259 260 260 261 263 265 267 267 267 269 270 271 271 271 271 271 272 271 271 271 271 271 271 271 272 272 273 274 274 274 274 274 274 274 275 275
261 261 261 262 261 259 259 259 260 261 262 264 266 267 268 269 270 271 272 272 272 272 272 272 272 271 272 272 272 272 272 271 271 272 273 274 274 274 274 275 275 275 275
262 262 262 262 261 261 261 260 260 261 263 264 265 267 268 270 271 272 273 273 272 273 273 272 272 272 272 272 272 273 273 272 272 271 271 272 273 274 274 275 275 275 275
263 263 263 263 262 262 262 263 263 263 263 265 265 267 269 271 272 273 273 273 273 273 274 273 272 272 272 273 273 273 272 272 272 272 271 271 272 273 274 274 275 275 275
263 263 263 264 264 265 265 265 266 266 266 266 267 268 270 272 273 273 273 272 273 274 274 274 274 273 273 274 274 273 273 272 272 272 272 271 271 272 273 273 274 274 275